Time,TemperatureF,DewpointF,PressureIn,WindDirection,WindDirectionDegrees,WindSpeedMPH,WindSpeedGustMPH,Humidity,HourlyPrecipIn,Conditions,Clouds,dailyrainin,SoftwareType,DateUTC
2013-02-16 00:02:00,28.0,14.0,-100.00,NW,320,10.0,16.0,56,-99.99,,,-99.99,,2013-02-16 05:02:00,
2013-02-16 00:12:00,27.0,15.0,-100.00,WNW,300,9.0,12.0,58,-99.99,,,-99.99,,2013-02-16 05:12:00,
2013-02-16 00:22:00,27.0,17.0,-100.00,WNW,285,9.0,12.0,65,-99.99,,,-99.99,,2013-02-16 05:22:00,
2013-02-16 00:32:00,26.0,17.0,-100.00,WNW,290,7.0,12.0,66,-99.99,,,-99.99,,2013-02-16 05:32:00,
2013-02-16 00:42:00,26.0,17.0,-100.00,WNW,295,6.0,9.0,68,-99.99,,,-99.99,,2013-02-16 05:42:00,
2013-02-16 00:52:00,25.0,17.0,-100.00,WNW,290,6.0,7.0,70,-99.99,,,-99.99,,2013-02-16 05:52:00,
2013-02-16 01:02:00,25.0,17.0,-100.00,WNW,290,4.0,6.0,70,-99.99,,,-99.99,,2013-02-16 06:02:00,
2013-02-16 01:11:00,25.0,17.0,-100.00,WNW,290,4.0,6.0,70,-99.99,,,-99.99,,2013-02-16 06:11:00,
2013-02-16 01:21:00,24.0,16.0,-100.00,WNW,300,2.0,5.0,71,-99.99,,,-99.99,,2013-02-16 06:21:00,
2013-02-16 01:32:00,24.0,16.0,-100.00,WNW,300,2.0,4.0,71,-99.99,,,-99.99,,2013-02-16 06:32:00,
2013-02-16 01:42:00,23.0,15.0,-100.00,NW,310,1.0,1.0,72,-99.99,,,-99.99,,2013-02-16 06:42:00,
2013-02-16 01:52:00,22.0,15.0,-100.00,NNW,330,0.0,1.0,73,-99.99,,,-99.99,,2013-02-16 06:52:00,
2013-02-16 02:02:00,22.0,15.0,-100.00,WNW,290,1.0,1.0,73,-99.99,,,-99.99,,2013-02-16 07:02:00,
2013-02-16 02:11:00,22.0,15.0,-100.00,SW,225,1.0,1.0,74,-99.99,,,-99.99,,2013-02-16 07:11:00,
2013-02-16 02:21:00,21.0,14.0,-100.00,SSW,195,1.0,1.0,75,-99.99,,,-99.99,,2013-02-16 07:21:00,
2013-02-16 02:32:00,20.0,15.0,-100.00,South,190,1.0,1.0,77,-99.99,,,-99.99,,2013-02-16 07:32:00,
2013-02-16 02:42:00,21.0,16.0,-100.00,SW,215,2.0,3.0,78,-99.99,,,-99.99,,2013-02-16 07:42:00,
2013-02-16 02:52:00,22.0,16.0,-100.00,WSW,240,2.0,2.0,79,-99.99,,,-99.99,,2013-02-16 07:52:00,
2013-02-16 03:01:00,22.0,16.0,-100.00,WSW,240,2.0,2.0,79,-99.99,,,-99.99,,2013-02-16 08:01:00,
2013-02-16 03:11:00,23.0,17.0,-100.00,WSW,245,4.0,6.0,77,-99.99,,,-99.99,,2013-02-16 08:11:00,
2013-02-16 03:21:00,23.0,17.0,-100.00,SW,230,4.0,6.0,76,-99.99,,,-99.99,,2013-02-16 08:21:00,
2013-02-16 03:32:00,22.0,17.0,-100.00,SW,230,4.0,6.0,77,-99.99,,,-99.99,,2013-02-16 08:32:00,
2013-02-16 03:42:00,22.0,16.0,-100.00,SW,230,4.0,6.0,77,-99.99,,,-99.99,,2013-02-16 08:42:00,
2013-02-16 03:52:00,22.0,16.0,-100.00,SW,230,3.0,6.0,78,-99.99,,,-99.99,,2013-02-16 08:52:00,
2013-02-16 04:02:00,22.0,17.0,-100.00,SW,235,4.0,6.0,78,-99.99,,,-99.99,,2013-02-16 09:02:00,
2013-02-16 04:11:00,22.0,17.0,-100.00,WSW,240,3.0,6.0,78,-99.99,,,-99.99,,2013-02-16 09:11:00,
2013-02-16 04:21:00,22.0,17.0,-100.00,SW,215,2.0,4.0,78,-99.99,,,-99.99,,2013-02-16 09:21:00,
2013-02-16 04:32:00,22.0,16.0,-100.00,SW,215,3.0,4.0,80,-99.99,,,-99.99,,2013-02-16 09:32:00,
2013-02-16 04:42:00,22.0,16.0,-100.00,SW,215,3.0,4.0,80,-99.99,,,-99.99,,2013-02-16 09:42:00,
2013-02-16 04:51:00,22.0,17.0,-100.00,SW,230,3.0,5.0,81,-99.99,,,-99.99,,2013-02-16 09:51:00,
2013-02-16 05:01:00,22.0,17.0,-100.00,SW,235,3.0,4.0,81,-99.99,,,-99.99,,2013-02-16 10:01:00,
2013-02-16 05:11:00,22.0,17.0,-100.00,SW,235,3.0,4.0,81,-99.99,,,-99.99,,2013-02-16 10:11:00,
2013-02-16 05:21:00,22.0,17.0,-100.00,SW,235,3.0,4.0,81,-99.99,,,-99.99,,2013-02-16 10:21:00,
2013-02-16 05:32:00,22.0,17.0,-100.00,SW,230,2.0,4.0,82,-99.99,,,-99.99,,2013-02-16 10:32:00,
2013-02-16 05:42:00,21.0,17.0,-100.00,SW,230,1.0,4.0,83,-99.99,,,-99.99,,2013-02-16 10:42:00,
2013-02-16 05:51:00,21.0,17.0,-100.00,SW,215,1.0,2.0,83,-99.99,,,-99.99,,2013-02-16 10:51:00,
2013-02-16 06:02:00,22.0,17.0,-100.00,SSW,210,2.0,4.0,83,-99.99,,,-99.99,,2013-02-16 11:02:00,
2013-02-16 06:11:00,22.0,18.0,-100.00,SW,235,2.0,3.0,83,-99.99,,,-99.99,,2013-02-16 11:11:00,
2013-02-16 06:22:00,22.0,17.0,-100.00,West,270,2.0,4.0,82,-99.99,,,-99.99,,2013-02-16 11:22:00,
2013-02-16 06:32:00,22.0,17.0,-100.00,West,270,2.0,4.0,82,-99.99,,,-99.99,,2013-02-16 11:32:00,
2013-02-16 06:42:00,22.0,17.0,-100.00,West,280,1.0,2.0,82,-99.99,,,-99.99,,2013-02-16 11:42:00,
2013-02-16 06:52:00,22.0,18.0,-100.00,SW,220,2.0,2.0,82,-99.99,,,-99.99,,2013-02-16 11:52:00,
2013-02-16 07:02:00,22.0,17.0,-100.00,SW,215,2.0,2.0,82,-99.99,,,-99.99,,2013-02-16 12:02:00,
2013-02-16 07:12:00,22.0,17.0,-100.00,SW,225,2.0,3.0,82,-99.99,,,-99.99,,2013-02-16 12:12:00,
2013-02-16 07:22:00,21.0,17.0,-100.00,South,185,1.0,2.0,82,-99.99,,,-99.99,,2013-02-16 12:22:00,
2013-02-16 07:32:00,21.0,17.0,-100.00,South,185,2.0,2.0,83,-99.99,,,-99.99,,2013-02-16 12:32:00,
2013-02-16 07:42:00,21.0,17.0,-100.00,South,185,2.0,2.0,83,-99.99,,,-99.99,,2013-02-16 12:42:00,
2013-02-16 07:52:00,22.0,17.0,-100.00,SSW,210,1.0,2.0,83,-99.99,,,-99.99,,2013-02-16 12:52:00,
2013-02-16 08:02:00,22.0,17.0,-100.00,South,185,1.0,1.0,84,-99.99,,,-99.99,,2013-02-16 13:02:00,
2013-02-16 08:12:00,22.0,18.0,-100.00,SW,220,2.0,2.0,84,-99.99,,,-99.99,,2013-02-16 13:12:00,
2013-02-16 08:22:00,22.0,18.0,-100.00,SW,220,2.0,2.0,84,-99.99,,,-99.99,,2013-02-16 13:22:00,
2013-02-16 08:32:00,22.0,18.0,-100.00,SW,220,2.0,2.0,84,-99.99,,,-99.99,,2013-02-16 13:32:00,
2013-02-16 08:41:00,23.0,19.0,-100.00,SSW,200,2.0,2.0,84,-99.99,,,-99.99,,2013-02-16 13:41:00,
2013-02-16 08:51:00,23.0,19.0,-100.00,SSW,195,1.0,2.0,84,-99.99,,,-99.99,,2013-02-16 13:51:00,
2013-02-16 09:01:00,24.0,19.0,-100.00,SW,235,2.0,4.0,83,-99.99,,,-99.99,,2013-02-16 14:01:00,
2013-02-16 09:11:00,24.0,19.0,-100.00,SW,225,3.0,5.0,82,-99.99,,,-99.99,,2013-02-16 14:11:00,
2013-02-16 09:21:00,24.0,19.0,-100.00,WSW,255,4.0,5.0,81,-99.99,,,-99.99,,2013-02-16 14:21:00,
2013-02-16 09:32:00,24.0,19.0,-100.00,SW,230,4.0,6.0,81,-99.99,,,-99.99,,2013-02-16 14:32:00,
2013-02-16 09:41:00,24.0,19.0,-100.00,SW,230,4.0,6.0,80,-99.99,,,-99.99,,2013-02-16 14:41:00,
2013-02-16 09:52:00,25.0,20.0,-100.00,SW,225,3.0,6.0,80,-99.99,,,-99.99,,2013-02-16 14:52:00,
2013-02-16 10:02:00,25.0,19.0,-100.00,SW,225,4.0,6.0,79,-99.99,,,-99.99,,2013-02-16 15:02:00,
2013-02-16 10:10:00,27.0,19.0,-100.00,SW,215,7.0,9.0,72,-99.99,,,-99.99,,2013-02-16 15:10:00,
2013-02-16 10:11:00,25.0,19.0,-100.00,SW,225,3.0,6.0,77,-99.99,,,-99.99,,2013-02-16 15:11:00,
2013-02-16 10:22:00,26.0,19.0,-100.00,WSW,255,2.0,6.0,76,-99.99,,,-99.99,,2013-02-16 15:22:00,
2013-02-16 10:32:00,27.0,19.0,-100.00,SW,215,7.0,9.0,72,-99.99,,,-99.99,,2013-02-16 15:32:00,
2013-02-16 10:42:00,27.0,19.0,-100.00,SW,215,7.0,9.0,72,-99.99,,,-99.99,,2013-02-16 15:42:00,
2013-02-16 10:51:00,27.0,19.0,-100.00,SW,215,7.0,9.0,72,-99.99,,,-99.99,,2013-02-16 15:51:00,
2013-02-16 11:01:00,27.0,19.0,-100.00,SW,215,7.0,9.0,72,-99.99,,,-99.99,,2013-02-16 16:01:00,
2013-02-16 11:22:00,26.0,19.0,-100.00,West,270,7.0,9.0,71,-99.99,,,-99.99,,2013-02-16 16:22:00,
2013-02-16 11:32:00,24.0,20.0,-100.00,WSW,255,11.0,15.0,84,-99.99,,,-99.99,,2013-02-16 16:32:00,
2013-02-16 11:42:00,24.0,21.0,-100.00,SW,230,3.0,9.0,89,-99.99,,,-99.99,,2013-02-16 16:42:00,
2013-02-16 11:52:00,25.0,22.0,-100.00,SW,225,4.0,7.0,89,-99.99,,,-99.99,,2013-02-16 16:52:00,
2013-02-16 12:01:00,25.0,21.0,-100.00,SW,230,6.0,12.0,85,-99.99,,,-99.99,,2013-02-16 17:01:00,
2013-02-16 12:11:00,25.0,20.0,-100.00,SW,230,7.0,11.0,81,-99.99,,,-99.99,,2013-02-16 17:11:00,
2013-02-16 12:22:00,25.0,20.0,-100.00,SW,230,7.0,11.0,81,-99.99,,,-99.99,,2013-02-16 17:22:00,
2013-02-16 12:32:00,27.0,20.0,-100.00,West,275,9.0,14.0,74,-99.99,,,-99.99,,2013-02-16 17:32:00,
2013-02-16 12:42:00,27.0,21.0,-100.00,WNW,290,9.0,13.0,77,-99.99,,,-99.99,,2013-02-16 17:42:00,
2013-02-16 12:52:00,27.0,21.0,-100.00,WNW,290,9.0,13.0,77,-99.99,,,-99.99,,2013-02-16 17:52:00,
2013-02-16 13:02:00,27.0,21.0,-100.00,WNW,290,9.0,13.0,77,-99.99,,,-99.99,,2013-02-16 18:02:00,
2013-02-16 13:11:00,26.0,19.0,-100.00,SW,225,9.0,13.0,76,-99.99,,,-99.99,,2013-02-16 18:11:00,
2013-02-16 13:21:00,26.0,19.0,-100.00,SW,230,11.0,13.0,75,-99.99,,,-99.99,,2013-02-16 18:21:00,
2013-02-16 13:33:00,26.0,21.0,-100.00,West,270,7.0,12.0,79,-99.99,,,-99.99,,2013-02-16 18:33:00,
2013-02-16 13:42:00,26.0,19.0,-100.00,WSW,255,10.0,15.0,75,-99.99,,,-99.99,,2013-02-16 18:42:00,
2013-02-16 13:51:00,25.0,19.0,-100.00,West,265,9.0,15.0,77,-99.99,,,-99.99,,2013-02-16 18:51:00,
2013-02-16 14:02:00,26.0,19.0,-100.00,WSW,255,6.0,12.0,72,-99.99,,,-99.99,,2013-02-16 19:02:00,
2013-02-16 14:11:00,28.0,17.0,-100.00,West,280,10.0,15.0,64,-99.99,,,-99.99,,2013-02-16 19:11:00,
2013-02-16 14:21:00,28.0,16.0,-100.00,WNW,295,11.0,17.0,60,-99.99,,,-99.99,,2013-02-16 19:21:00,
2013-02-16 14:32:00,28.0,17.0,-100.00,West,280,10.0,15.0,61,-99.99,,,-99.99,,2013-02-16 19:32:00,
2013-02-16 14:42:00,28.0,15.0,-100.00,WNW,300,11.0,16.0,58,-99.99,,,-99.99,,2013-02-16 19:42:00,
2013-02-16 14:52:00,28.0,17.0,-100.00,WNW,285,15.0,21.0,62,-99.99,,,-99.99,,2013-02-16 19:52:00,
2013-02-16 15:01:00,27.0,17.0,-100.00,NW,305,11.0,19.0,65,-99.99,,,-99.99,,2013-02-16 20:01:00,
2013-02-16 15:11:00,27.0,17.0,-100.00,NW,305,14.0,19.0,66,-99.99,,,-99.99,,2013-02-16 20:11:00,
2013-02-16 15:21:00,27.0,17.0,-100.00,NW,305,14.0,19.0,66,-99.99,,,-99.99,,2013-02-16 20:21:00,
2013-02-16 15:32:00,27.0,17.0,-100.00,NW,305,14.0,19.0,66,-99.99,,,-99.99,,2013-02-16 20:32:00,
2013-02-16 15:42:00,26.0,19.0,-100.00,WNW,285,14.0,23.0,75,-99.99,,,-99.99,,2013-02-16 20:42:00,
2013-02-16 15:52:00,25.0,20.0,-100.00,West,280,11.0,19.0,77,-99.99,,,-99.99,,2013-02-16 20:52:00,
2013-02-16 16:02:00,24.0,20.0,-100.00,West,270,11.0,16.0,83,-99.99,,,-99.99,,2013-02-16 21:02:00,
2013-02-16 16:11:00,25.0,20.0,-100.00,West,270,10.0,14.0,80,-99.99,,,-99.99,,2013-02-16 21:11:00,
2013-02-16 16:21:00,26.0,19.0,-100.00,WNW,290,12.0,18.0,77,-99.99,,,-99.99,,2013-02-16 21:21:00,
2013-02-16 16:32:00,26.0,19.0,-100.00,WNW,285,10.0,16.0,74,-99.99,,,-99.99,,2013-02-16 21:32:00,
2013-02-16 16:42:00,25.0,19.0,-100.00,West,280,6.0,17.0,76,-99.99,,,-99.99,,2013-02-16 21:42:00,
2013-02-16 16:52:00,26.0,18.0,-100.00,West,275,7.0,17.0,73,-99.99,,,-99.99,,2013-02-16 21:52:00,
2013-02-16 17:01:00,25.0,19.0,-100.00,WNW,295,15.0,18.0,77,-99.99,,,-99.99,,2013-02-16 22:01:00,
2013-02-16 17:11:00,25.0,18.0,-100.00,WNW,285,14.0,20.0,73,-99.99,,,-99.99,,2013-02-16 22:11:00,
2013-02-16 17:21:00,25.0,17.0,-100.00,West,275,13.0,20.0,71,-99.99,,,-99.99,,2013-02-16 22:21:00,
2013-02-16 17:32:00,25.0,17.0,-100.00,WNW,290,13.0,22.0,72,-99.99,,,-99.99,,2013-02-16 22:32:00,
2013-02-16 17:42:00,24.0,17.0,-100.00,WNW,295,15.0,21.0,72,-99.99,,,-99.99,,2013-02-16 22:42:00,
2013-02-16 17:51:00,24.0,17.0,-100.00,WNW,295,18.0,22.0,75,-99.99,,,-99.99,,2013-02-16 22:51:00,
2013-02-16 18:02:00,24.0,17.0,-100.00,WNW,295,18.0,22.0,75,-99.99,,,-99.99,,2013-02-16 23:02:00,
2013-02-16 18:11:00,24.0,18.0,-100.00,WNW,285,12.0,20.0,78,-99.99,,,-99.99,,2013-02-16 23:11:00,
2013-02-16 18:21:00,23.0,17.0,-100.00,WNW,290,17.0,22.0,76,-99.99,,,-99.99,,2013-02-16 23:21:00,
2013-02-16 18:32:00,22.0,17.0,-100.00,WNW,290,16.0,21.0,79,-99.99,,,-99.99,,2013-02-16 23:32:00,
2013-02-16 18:42:00,22.0,17.0,-100.00,NW,305,15.0,21.0,78,-99.99,,,-99.99,,2013-02-16 23:42:00,
2013-02-16 18:52:00,23.0,16.0,-100.00,WNW,295,13.0,23.0,75,-99.99,,,-99.99,,2013-02-16 23:52:00,
2013-02-16 19:02:00,22.0,15.0,-100.00,WNW,295,13.0,19.0,73,-99.99,,,-99.99,,2013-02-17 00:02:00,
2013-02-16 19:12:00,22.0,14.0,-100.00,WNW,300,12.0,21.0,69,-99.99,,,-99.99,,2013-02-17 00:12:00,
2013-02-16 19:22:00,23.0,14.0,-100.00,WNW,295,12.0,16.0,68,-99.99,,,-99.99,,2013-02-17 00:22:00,
2013-02-16 19:32:00,22.0,13.0,-100.00,WNW,290,12.0,14.0,65,-99.99,,,-99.99,,2013-02-17 00:32:00,
2013-02-16 19:42:00,22.0,11.0,-100.00,West,275,10.0,17.0,62,-99.99,,,-99.99,,2013-02-17 00:42:00,
2013-02-16 19:52:00,22.0,11.0,-100.00,West,275,10.0,17.0,62,-99.99,,,-99.99,,2013-02-17 00:52:00,
2013-02-16 20:01:00,22.0,10.0,-100.00,West,280,12.0,20.0,60,-99.99,,,-99.99,,2013-02-17 01:01:00,
2013-02-16 20:11:00,21.0,9.0,-100.00,WNW,285,12.0,17.0,58,-99.99,,,-99.99,,2013-02-17 01:11:00,
2013-02-16 20:21:00,21.0,9.0,-100.00,WNW,285,8.0,17.0,58,-99.99,,,-99.99,,2013-02-17 01:21:00,
2013-02-16 20:32:00,20.0,8.0,-100.00,WNW,285,7.0,14.0,58,-99.99,,,-99.99,,2013-02-17 01:32:00,
2013-02-16 20:41:00,20.0,8.0,-100.00,WNW,285,7.0,12.0,57,-99.99,,,-99.99,,2013-02-17 01:41:00,
2013-02-16 20:52:00,20.0,8.0,-100.00,West,265,7.0,11.0,57,-99.99,,,-99.99,,2013-02-17 01:52:00,
2013-02-16 21:01:00,20.0,9.0,-100.00,West,280,8.0,13.0,59,-99.99,,,-99.99,,2013-02-17 02:01:00,
2013-02-16 21:11:00,21.0,10.0,-100.00,West,270,7.0,13.0,62,-99.99,,,-99.99,,2013-02-17 02:11:00,
2013-02-16 21:21:00,21.0,11.0,-100.00,West,280,7.0,16.0,65,-99.99,,,-99.99,,2013-02-17 02:21:00,
2013-02-16 21:32:00,21.0,11.0,-100.00,WNW,285,11.0,17.0,66,-99.99,,,-99.99,,2013-02-17 02:32:00,
2013-02-16 21:41:00,21.0,12.0,-100.00,WNW,285,15.0,19.0,68,-99.99,,,-99.99,,2013-02-17 02:41:00,
2013-02-16 21:52:00,21.0,12.0,-100.00,WNW,300,14.0,20.0,69,-99.99,,,-99.99,,2013-02-17 02:52:00,
2013-02-16 22:02:00,20.0,12.0,-100.00,WNW,300,15.0,19.0,68,-99.99,,,-99.99,,2013-02-17 03:02:00,
2013-02-16 22:11:00,20.0,11.0,-100.00,WNW,295,15.0,22.0,68,-99.99,,,-99.99,,2013-02-17 03:11:00,
2013-02-16 22:21:00,20.0,12.0,-100.00,WNW,295,11.0,17.0,68,-99.99,,,-99.99,,2013-02-17 03:21:00,
2013-02-16 22:32:00,20.0,11.0,-100.00,WNW,285,12.0,17.0,69,-99.99,,,-99.99,,2013-02-17 03:32:00,
2013-02-16 22:42:00,19.0,11.0,-100.00,WNW,285,12.0,16.0,70,-99.99,,,-99.99,,2013-02-17 03:42:00,
2013-02-16 22:51:00,19.0,11.0,-100.00,WNW,285,12.0,16.0,70,-99.99,,,-99.99,,2013-02-17 03:51:00,
2013-02-16 23:01:00,20.0,12.0,-100.00,NW,305,10.0,18.0,71,-99.99,,,-99.99,,2013-02-17 04:01:00,
2013-02-16 23:11:00,19.0,12.0,-100.00,WNW,290,13.0,19.0,72,-99.99,,,-99.99,,2013-02-17 04:11:00,
2013-02-16 23:21:00,19.0,12.0,-100.00,WNW,300,13.0,17.0,72,-99.99,,,-99.99,,2013-02-17 04:21:00,
2013-02-16 23:32:00,19.0,12.0,-100.00,WNW,295,12.0,17.0,73,-99.99,,,-99.99,,2013-02-17 04:32:00,
2013-02-16 23:41:00,19.0,12.0,-100.00,WNW,295,14.0,17.0,73,-99.99,,,-99.99,,2013-02-17 04:41:00,
2013-02-16 23:51:00,19.0,12.0,-100.00,WNW,300,14.0,18.0,73,-99.99,,,-99.99,,2013-02-17 04:51:00,